Location: ?????
(55.8833°N, 37.6500°E)
Time: 09:12:35
(UTC+00:00)

STARLINK-74 - Pass Details

Date: 27 February 2020
Orbit: 529 x 530 km, 53.0° (Epoch: 10 April)

Event Time Altitude Azimuth Distance (km) Brightness Sun altitude
Rises 17:32:22 0° 273° (W) 2,670 8.4 -22.1°
Reaches altitude 10° 17:34:37 10° 268° (W) 1,779 7.2 -22.4°
Enters shadow 17:38:16 48° 207° (SSW) 698 4.1 -22.9°
